START_TIME,STEP,MOV.,M6,t_acc.,M7,t_acc.,M19,t_acc.,H36,t_acc.
1979-07-18 23:08:02.990 ,0,0,0.,12.0,0.,12.0,0.,12.0,0.,12.0
1979-07-18 23:08:14.990 ,0,0,0.,12.0,0.,12.0,0.,12.0,0.,12.0
1979-07-18 23:08:26.990 ,0,0,0.,12.0,0.,12.0,0.,12.0,0.,12.0
1979-07-18 23:08:38.990 ,0,0,0.,12.0,0.,12.0,0.,12.0,0.,12.0
1979-07-18 23:08:50.990 ,3,1,0.,12.0,0.,12.0,0.,12.0,0.,12.0
1979-07-18 23:09:02.990 ,3,1,0.,12.0,0.,12.0,0.,12.0,0.,12.0
1979-07-18 23:09:14.990 ,3,0,0.,12.0,0.,12.0,0.,12.0,0.,12.0
1979-07-18 23:09:26.990 ,3,0,0.,12.0,0.,12.0,0.,12.0,0.,12.0
1979-07-18 23:09:38.990 ,2,1,0.,12.0,0.,12.0,0.,12.0,0.,12.0
1979-07-18 23:09:50.990 ,2,1,0.,12.0,0.,12.0,0.,12.0,0.,12.0
1979-07-18 23:10:02.990 ,2,0,0.,12.0,0.,12.0,0.,12.0,0.,12.0
1979-07-18 23:10:14.990 ,2,0,0.,12.0,0.,12.0,0.,12.0,0.,12.0
1979-07-18 23:10:26.990 ,1,1,0.,12.0,0.,12.0,0.,12.0,0.,12.0
1979-07-18 23:10:38.990 ,1,1,0.,12.0,0.,12.0,0.,12.0,0.,12.0
1979-07-18 23:10:50.990 ,1,0,1.,12.0,0.,12.0,0.,12.0,0.,12.0
1979-07-18 23:11:02.990 ,1,0,0.,12.0,0.,12.0,0.,12.0,0.,12.0
1979-07-18 23:11:14.990 ,0,1,0.,12.0,0.,12.0,0.,12.0,0.,12.0
1979-07-18 23:11:26.990 ,0,1,0.,12.0,0.,12.0,0.,12.0,0.,12.0
1979-07-18 23:11:38.990 ,0,0,0.,12.0,0.,12.0,0.,12.0,0.,12.0
1979-07-18 23:11:50.990 ,0,0,0.,12.0,0.,12.0,0.,12.0,0.,12.0
1979-07-18 23:12:02.990 ,0,1,0.,12.0,0.,12.0,0.,12.0,0.,12.0
1979-07-18 23:12:14.990 ,0,1,0.,12.0,0.,12.0,0.,12.0,0.,12.0
1979-07-18 23:12:26.990 ,0,0,0.,12.0,0.,12.0,0.,12.0,0.,12.0
1979-07-18 23:12:38.990 ,0,0,,0,,0,,0,,0
1979-07-18 23:12:51.590 ,1,1,0.,12.0,0.,12.0,0.,12.0,0.,12.0
1979-07-18 23:13:03.590 ,1,1,0.,12.0,0.,12.0,0.,12.0,0.,12.0
1979-07-18 23:13:14.990 ,1,0,0.,12.0,0.,12.0,0.,12.0,0.,12.0
1979-07-18 23:13:26.990 ,1,0,0.,12.0,0.,12.0,0.,12.0,0.,12.0
1979-07-18 23:19:14.990 ,0,0,0.,12.0,0.,12.0,0.,12.0,0.,12.0
1979-07-18 23:19:26.990 ,0,0,0.,12.0,0.,12.0,0.,12.0,0.,12.0
1979-07-18 23:19:38.990 ,0,0,0.,12.0,0.,12.0,0.,12.0,0.,12.0
1979-07-18 23:19:50.990 ,0,0,0.,12.0,0.,12.0,0.,12.0,0.,12.0
1979-07-18 23:20:02.990 ,5,1,0.,12.0,0.,12.0,0.,12.0,0.,12.0
1979-07-18 23:20:14.990 ,5,1,0.,12.0,0.,12.0,0.,12.0,0.,12.0
1979-07-18 23:20:26.990 ,5,0,0.,12.0,0.,12.0,0.,12.0,0.,12.0
1979-07-18 23:20:38.990 ,5,0,0.,12.0,0.,12.0,0.,12.0,0.,12.0
1979-07-18 23:20:26.990 ,0,0,0.,12.0,0.,12.0,0.,12.0,0.,12.0
1979-07-18 23:20:38.990 ,0,0,0.,12.0,0.,12.0,0.,12.0,0.,12.0
1979-07-18 23:20:26.990 ,0,0,0.,12.0,0.,12.0,0.,12.0,0.,12.0
1979-07-18 23:20:38.990 ,0,0,0.,12.0,0.,12.0,0.,12.0,0.,12.0
1979-07-18 23:20:50.990 ,4,1,0.,12.0,0.,12.0,0.,12.0,0.,12.0
1979-07-18 23:21:02.990 ,4,1,0.,12.0,0.,12.0,0.,12.0,0.,12.0
1979-07-18 23:21:14.990 ,4,0,0.,12.0,0.,12.0,0.,12.0,0.,12.0
1979-07-18 23:21:26.990 ,4,0,0.,12.0,0.,12.0,0.,12.0,0.,12.0
1979-07-18 23:21:38.990 ,3,1,0.,12.0,0.,12.0,0.,12.0,0.,12.0
1979-07-18 23:21:50.990 ,3,1,0.,12.0,0.,12.0,0.,12.0,0.,12.0
1979-07-18 23:22:02.990 ,3,0,0.,12.0,0.,12.0,0.,12.0,0.,12.0
1979-07-18 23:22:14.990 ,3,0,0.,12.0,0.,12.0,0.,12.0,0.,12.0
1979-07-18 23:22:26.990 ,3,0,0.,12.0,0.,12.0,0.,12.0,0.,12.0
1979-07-18 23:22:38.990 ,3,0,,0,,0,,0,,0
1979-07-18 23:22:50.990 ,2,0,1.,12.0,0.,12.0,0.,12.0,0.,12.0
1979-07-18 23:23:02.990 ,2,0,0.,12.0,0.,12.0,0.,12.0,0.,12.0
1979-07-18 23:23:14.990 ,1,1,0.,12.0,0.,12.0,0.,12.0,0.,12.0
1979-07-18 23:23:26.990 ,1,1,0.,12.0,0.,12.0,0.,12.0,0.,12.0
1979-07-18 23:23:38.990 ,1,0,0.,12.0,0.,12.0,0.,12.0,0.,12.0
1979-07-18 23:23:50.990 ,1,0,0.,12.0,0.,12.0,0.,12.0,0.,12.0
1979-07-18 23:24:02.990 ,0,1,0.,12.0,0.,12.0,0.,12.0,0.,12.0
1979-07-18 23:24:14.990 ,0,1,0.,12.0,0.,12.0,0.,12.0,0.,12.0
1979-07-18 23:24:26.990 ,0,0,0.,12.0,0.,12.0,0.,12.0,0.,12.0
1979-07-18 23:24:38.990 ,0,0,0.,12.0,0.,12.0,0.,12.0,0.,12.0
1979-07-18 23:24:50.990 ,0,1,1.,12.0,0.,12.0,0.,12.0,0.,12.0
1979-07-18 23:25:02.990 ,0,1,0.,12.0,0.,12.0,0.,12.0,0.,12.0
1979-07-18 23:25:14.990 ,0,0,0.,12.0,0.,12.0,0.,12.0,0.,12.0
1979-07-18 23:25:26.990 ,0,0,0.,12.0,0.,12.0,0.,12.0,0.,12.0
1979-07-18 23:25:38.990 ,1,1,1.,12.0,0.,12.0,0.,12.0,0.,12.0
1979-07-18 23:25:50.990 ,1,1,0.,12.0,0.,12.0,0.,12.0,0.,12.0
1979-07-18 23:26:02.990 ,1,0,0.,12.0,0.,12.0,0.,12.0,0.,12.0
1979-07-18 23:26:14.990 ,1,0,0.,12.0,0.,12.0,0.,12.0,0.,12.0
1979-07-18 23:26:26.990 ,2,1,0.,12.0,0.,12.0,0.,12.0,0.,12.0
1979-07-18 23:26:38.990 ,2,1,0.,12.0,0.,12.0,0.,12.0,0.,12.0
1979-07-18 23:26:50.990 ,2,0,0.,12.0,0.,12.0,0.,12.0,0.,12.0
1979-07-18 23:27:02.990 ,2,0,0.,12.0,0.,12.0,0.,12.0,0.,12.0
1979-07-18 23:27:14.990 ,3,1,0.,12.0,0.,12.0,0.,12.0,0.,12.0
1979-07-18 23:27:26.990 ,3,1,0.,12.0,0.,12.0,0.,12.0,0.,12.0
1979-07-18 23:27:38.990 ,3,0,0.,12.0,0.,12.0,0.,12.0,0.,12.0
1979-07-18 23:27:50.990 ,3,0,0.,12.0,0.,12.0,0.,12.0,0.,12.0
1979-07-18 23:28:02.990 ,4,1,0.,12.0,0.,12.0,0.,12.0,0.,12.0
1979-07-18 23:28:14.990 ,4,1,0.,12.0,0.,12.0,0.,12.0,0.,12.0
1979-07-18 23:28:26.990 ,4,0,0.,12.0,0.,12.0,0.,12.0,0.,12.0
1979-07-18 23:28:38.990 ,4,0,0.,12.0,0.,12.0,0.,12.0,0.,12.0
1979-07-18 23:28:50.990 ,5,1,0.,12.0,0.,12.0,0.,12.0,0.,12.0
1979-07-18 23:29:02.990 ,5,1,0.,12.0,0.,12.0,0.,12.0,0.,12.0
1979-07-18 23:29:14.990 ,5,0,0.,12.0,0.,12.0,0.,12.0,0.,12.0
1979-07-18 23:29:26.990 ,5,0,0.,12.0,0.,12.0,0.,12.0,0.,12.0
1979-07-18 23:29:38.990 ,6,1,0.,12.0,0.,12.0,0.,12.0,0.,12.0
1979-07-18 23:29:50.990 ,6,1,0.,12.0,0.,12.0,0.,12.0,0.,12.0
1979-07-18 23:30:02.990 ,6,0,0.,12.0,0.,12.0,0.,12.0,0.,12.0
1979-07-18 23:30:14.990 ,6,0,0.,12.0,0.,12.0,0.,12.0,0.,12.0
1979-07-18 23:31:14.990 ,0,0,0.,12.0,0.,12.0,0.,12.0,0.,12.0
1979-07-18 23:31:26.990 ,0,0,0.,12.0,0.,12.0,0.,12.0,0.,12.0
1979-07-18 23:31:38.990 ,0,1,0.,12.0,0.,12.0,0.,12.0,0.,12.0
1979-07-18 23:31:50.990 ,0,1,0.,12.0,0.,12.0,0.,12.0,0.,12.0
1979-07-18 23:32:02.990 ,3,1,0.,12.0,0.,12.0,0.,12.0,0.,12.0
1979-07-18 23:32:14.990 ,3,1,0.,12.0,0.,12.0,0.,12.0,0.,12.0
1979-07-18 23:32:26.990 ,7,1,0.,12.0,0.,12.0,0.,12.0,0.,12.0
1979-07-18 23:32:38.990 ,7,1,0.,12.0,0.,12.0,0.,12.0,0.,12.0
1979-07-18 23:32:50.990 ,4,1,0.,12.0,0.,12.0,0.,12.0,0.,12.0
1979-07-18 23:33:02.990 ,4,1,0.,12.0,0.,12.0,0.,12.0,0.,12.0
1979-07-18 23:33:14.990 ,0,1,0.,12.0,0.,12.0,0.,12.0,0.,12.0
1979-07-18 23:33:26.990 ,0,1,0.,12.0,0.,12.0,0.,12.0,0.,12.0
1979-07-18 23:33:38.990 ,3,1,0.,12.0,0.,12.0,0.,12.0,0.,12.0
1979-07-18 23:33:50.990 ,3,1,0.,12.0,0.,12.0,0.,12.0,0.,12.0
1979-07-18 23:34:02.990 ,7,1,0.,12.0,0.,12.0,0.,12.0,0.,12.0
1979-07-18 23:34:14.990 ,7,1,0.,12.0,0.,12.0,0.,12.0,0.,12.0
1979-07-18 23:34:26.990 ,4,1,0.,12.0,0.,12.0,0.,12.0,0.,12.0
1979-07-18 23:34:38.990 ,4,1,0.,12.0,0.,12.0,0.,12.0,0.,12.0
1979-07-18 23:34:50.990 ,0,1,0.,12.0,0.,12.0,0.,12.0,0.,12.0
1979-07-18 23:35:02.990 ,0,1,0.,12.0,0.,12.0,0.,12.0,0.,12.0
1979-07-18 23:35:14.990 ,3,1,0.,12.0,0.,12.0,0.,12.0,0.,12.0
1979-07-18 23:35:26.990 ,3,1,0.,12.0,0.,12.0,0.,12.0,0.,12.0
1979-07-18 23:35:38.990 ,7,1,0.,12.0,0.,12.0,0.,12.0,0.,12.0
1979-07-18 23:35:50.990 ,7,1,0.,12.0,0.,12.0,0.,12.0,0.,12.0
1979-07-18 23:36:02.990 ,4,1,0.,12.0,0.,12.0,0.,12.0,0.,12.0
1979-07-18 23:36:14.990 ,4,1,0.,12.0,0.,12.0,0.,12.0,0.,12.0
1979-07-18 23:36:26.990 ,0,1,0.,12.0,0.,12.0,0.,12.0,0.,12.0
1979-07-18 23:36:38.990 ,0,1,0.,12.0,0.,12.0,0.,12.0,0.,12.0
1979-07-18 23:36:50.990 ,3,1,0.,12.0,0.,12.0,0.,12.0,0.,12.0
1979-07-18 23:37:02.990 ,3,1,0.,12.0,0.,12.0,0.,12.0,0.,12.0
1979-07-18 23:37:14.990 ,7,1,0.,12.0,0.,12.0,0.,12.0,0.,12.0
1979-07-18 23:37:26.990 ,7,1,0.,12.0,0.,12.0,0.,12.0,0.,12.0
1979-07-18 23:37:38.990 ,4,1,0.,12.0,0.,12.0,0.,12.0,0.,12.0
1979-07-18 23:37:50.990 ,4,1,0.,12.0,0.,12.0,0.,12.0,0.,12.0
1979-07-18 23:38:02.990 ,0,1,0.,12.0,0.,12.0,0.,12.0,0.,12.0
1979-07-18 23:38:14.990 ,0,1,0.,12.0,0.,12.0,0.,12.0,0.,12.0
1979-07-18 23:38:26.990 ,3,1,0.,12.0,0.,12.0,0.,12.0,0.,12.0
1979-07-18 23:38:38.990 ,3,1,0.,12.0,0.,12.0,0.,12.0,0.,12.0
1979-07-18 23:38:50.990 ,7,1,0.,12.0,0.,12.0,0.,12.0,0.,12.0
1979-07-18 23:39:02.990 ,7,1,0.,12.0,0.,12.0,0.,12.0,0.,12.0
1979-07-18 23:39:14.990 ,4,1,0.,12.0,0.,12.0,0.,12.0,0.,12.0
1979-07-18 23:39:26.990 ,4,1,0.,12.0,0.,12.0,0.,12.0,0.,12.0
1979-07-18 23:39:38.990 ,0,1,0.,12.0,0.,12.0,0.,12.0,0.,12.0
1979-07-18 23:39:50.990 ,0,1,0.,12.0,0.,12.0,0.,12.0,0.,12.0
1979-07-18 23:40:02.990 ,3,1,0.,12.0,0.,12.0,0.,12.0,0.,12.0
1979-07-18 23:40:14.990 ,3,1,0.,12.0,0.,12.0,0.,12.0,0.,12.0
1979-07-18 23:40:26.990 ,7,1,0.,12.0,0.,12.0,0.,12.0,0.,12.0
1979-07-18 23:40:38.990 ,7,1,0.,12.0,0.,12.0,0.,12.0,0.,12.0
1979-07-18 23:40:50.990 ,4,1,0.,12.0,0.,12.0,0.,12.0,0.,12.0
1979-07-18 23:41:02.990 ,4,1,0.,12.0,0.,12.0,0.,12.0,0.,12.0
1979-07-18 23:41:14.990 ,0,1,0.,12.0,0.,12.0,0.,12.0,0.,12.0
1979-07-18 23:41:26.990 ,0,1,0.,12.0,0.,12.0,0.,12.0,0.,12.0
1979-07-18 23:41:38.990 ,0,0,0.,12.0,0.,12.0,0.,12.0,0.,12.0
1979-07-18 23:41:50.990 ,0,0,0.,12.0,0.,12.0,0.,12.0,0.,12.0
1979-07-18 23:42:02.990 ,0,0,1.,12.0,0.,12.0,0.,12.0,0.,12.0
1979-07-18 23:42:14.990 ,0,0,0.,12.0,0.,12.0,0.,12.0,0.,12.0
1979-07-18 23:42:26.990 ,5,1,0.,12.0,0.,12.0,0.,12.0,0.,12.0
1979-07-18 23:42:38.990 ,5,1,1.,12.0,0.,12.0,0.,12.0,0.,12.0
1979-07-18 23:42:50.990 ,5,0,0.,12.0,0.,12.0,0.,12.0,0.,12.0
1979-07-18 23:43:02.990 ,5,0,0.,12.0,0.,12.0,0.,12.0,0.,12.0
1979-07-18 23:43:14.990 ,4,1,0.,12.0,0.,12.0,0.,12.0,0.,12.0
1979-07-18 23:43:26.990 ,4,1,0.,12.0,0.,12.0,0.,12.0,0.,12.0
1979-07-18 23:43:38.990 ,4,0,0.,12.0,0.,12.0,0.,12.0,0.,12.0
1979-07-18 23:43:50.990 ,4,0,0.,12.0,0.,12.0,0.,12.0,0.,12.0
1979-07-18 23:44:02.990 ,3,1,0.,12.0,0.,12.0,0.,12.0,0.,12.0
1979-07-18 23:44:14.990 ,3,1,0.,12.0,0.,12.0,0.,12.0,0.,12.0
1979-07-18 23:44:26.990 ,3,0,0.,12.0,0.,12.0,0.,12.0,0.,12.0
1979-07-18 23:44:38.990 ,3,0,0.,12.0,0.,12.0,0.,12.0,0.,12.0
1979-07-18 23:44:50.990 ,2,1,0.,12.0,0.,12.0,0.,12.0,0.,12.0
1979-07-18 23:45:02.990 ,2,1,0.,12.0,0.,12.0,0.,12.0,0.,12.0
1979-07-18 23:45:14.990 ,2,0,0.,12.0,0.,12.0,0.,12.0,0.,12.0
1979-07-18 23:45:26.990 ,2,0,0.,12.0,0.,12.0,0.,12.0,0.,12.0
1979-07-18 23:45:38.990 ,1,1,0.,12.0,0.,12.0,0.,12.0,0.,12.0
1979-07-18 23:45:50.990 ,1,1,0.,12.0,0.,12.0,0.,12.0,0.,12.0
1979-07-18 23:46:02.990 ,1,0,0.,12.0,0.,12.0,0.,12.0,0.,12.0
1979-07-18 23:46:14.990 ,1,0,0.,12.0,0.,12.0,0.,12.0,0.,12.0
1979-07-18 23:46:26.990 ,0,1,0.,12.0,0.,12.0,0.,12.0,0.,12.0
1979-07-18 23:46:38.990 ,0,1,0.,12.0,0.,12.0,0.,12.0,0.,12.0
1979-07-18 23:46:50.990 ,0,0,0.,12.0,0.,12.0,0.,12.0,0.,12.0
1979-07-18 23:47:02.990 ,0,0,0.,12.0,0.,12.0,0.,12.0,0.,12.0
1979-07-18 23:47:14.990 ,0,1,0.,12.0,0.,12.0,0.,12.0,0.,12.0
1979-07-18 23:47:26.990 ,0,1,0.,12.0,0.,12.0,0.,12.0,0.,12.0
1979-07-18 23:47:38.990 ,0,0,0.,12.0,0.,12.0,0.,12.0,0.,12.0
1979-07-18 23:47:50.990 ,0,0,0.,12.0,0.,12.0,0.,12.0,0.,12.0
1979-07-18 23:48:02.990 ,1,1,0.,12.0,0.,12.0,0.,12.0,0.,12.0
1979-07-18 23:48:14.990 ,1,1,0.,12.0,0.,12.0,0.,12.0,0.,12.0
1979-07-18 23:48:26.990 ,1,0,0.,12.0,0.,12.0,0.,12.0,0.,12.0
1979-07-18 23:48:38.990 ,1,0,0.,12.0,0.,12.0,0.,12.0,0.,12.0
1979-07-18 23:48:50.990 ,2,1,0.,12.0,0.,12.0,0.,12.0,0.,12.0
1979-07-18 23:49:02.990 ,2,1,0.,12.0,0.,12.0,0.,12.0,0.,12.0
1979-07-18 23:49:14.990 ,2,0,0.,12.0,0.,12.0,0.,12.0,0.,12.0
1979-07-18 23:49:26.990 ,2,0,0.,12.0,0.,12.0,0.,12.0,0.,12.0
1979-07-18 23:49:38.990 ,3,1,0.,12.0,0.,12.0,0.,12.0,0.,12.0
1979-07-18 23:49:50.990 ,3,1,0.,12.0,0.,12.0,0.,12.0,0.,12.0
1979-07-18 23:50:02.990 ,3,0,0.,12.0,0.,12.0,0.,12.0,0.,12.0
1979-07-18 23:50:14.990 ,3,0,0.,12.0,0.,12.0,0.,12.0,0.,12.0
1979-07-18 23:50:26.990 ,4,1,0.,12.0,0.,12.0,0.,12.0,0.,12.0
1979-07-18 23:50:38.990 ,4,1,0.,12.0,0.,12.0,0.,12.0,0.,12.0
1979-07-18 23:50:50.990 ,4,0,0.,12.0,0.,12.0,0.,12.0,0.,12.0
1979-07-18 23:51:02.990 ,4,0,0.,12.0,0.,12.0,0.,12.0,0.,12.0
1979-07-18 23:51:14.990 ,5,1,0.,12.0,0.,12.0,0.,12.0,0.,12.0
1979-07-18 23:51:26.990 ,5,1,0.,12.0,0.,12.0,0.,12.0,0.,12.0
1979-07-18 23:51:38.990 ,5,0,0.,12.0,0.,12.0,0.,12.0,0.,12.0
1979-07-18 23:51:50.990 ,5,0,0.,12.0,0.,12.0,0.,12.0,0.,12.0
1979-07-18 23:52:02.990 ,6,1,0.,12.0,0.,12.0,0.,12.0,0.,12.0
1979-07-18 23:52:14.990 ,6,1,0.,12.0,0.,12.0,0.,12.0,0.,12.0
1979-07-18 23:52:26.990 ,6,0,0.,12.0,0.,12.0,0.,12.0,0.,12.0
1979-07-18 23:52:38.990 ,6,0,0.,12.0,0.,12.0,0.,12.0,0.,12.0
1979-07-18 23:52:50.990 ,7,1,0.,12.0,0.,12.0,0.,12.0,0.,12.0
1979-07-18 23:53:02.990 ,7,1,0.,12.0,0.,12.0,0.,12.0,0.,12.0
1979-07-18 23:53:14.990 ,7,0,0.,12.0,0.,12.0,0.,12.0,0.,12.0
1979-07-18 23:53:26.990 ,7,0,0.,12.0,0.,12.0,0.,12.0,0.,12.0
1979-07-18 23:53:38.990 ,7,1,0.,12.0,0.,12.0,0.,12.0,0.,12.0
1979-07-18 23:53:50.990 ,7,1,0.,12.0,0.,12.0,0.,12.0,0.,12.0
1979-07-18 23:54:02.990 ,7,0,0.,12.0,0.,12.0,0.,12.0,0.,12.0
1979-07-18 23:54:14.990 ,7,0,0.,12.0,0.,12.0,0.,12.0,0.,12.0
1979-07-18 23:54:26.990 ,6,1,0.,12.0,0.,12.0,0.,12.0,0.,12.0
1979-07-18 23:54:38.990 ,6,1,0.,12.0,0.,12.0,0.,12.0,0.,12.0
1979-07-18 23:54:50.990 ,6,0,0.,12.0,0.,12.0,0.,12.0,0.,12.0
1979-07-18 23:55:02.990 ,6,0,0.,12.0,0.,12.0,0.,12.0,0.,12.0
1979-07-18 23:55:14.990 ,5,1,0.,12.0,0.,12.0,0.,12.0,0.,12.0
1979-07-18 23:55:26.990 ,5,1,0.,12.0,0.,12.0,0.,12.0,0.,12.0
1979-07-18 23:55:38.990 ,5,0,0.,12.0,0.,12.0,0.,12.0,0.,12.0
1979-07-18 23:55:50.990 ,5,0,0.,12.0,0.,12.0,0.,12.0,0.,12.0
1979-07-18 23:56:02.990 ,4,1,0.,12.0,0.,12.0,0.,12.0,0.,12.0
1979-07-18 23:56:14.990 ,4,1,0.,12.0,0.,12.0,0.,12.0,0.,12.0
1979-07-18 23:56:26.990 ,4,0,0.,12.0,0.,12.0,0.,12.0,0.,12.0
1979-07-18 23:56:38.990 ,4,0,0.,12.0,0.,12.0,0.,12.0,0.,12.0
1979-07-18 23:56:50.990 ,3,1,0.,12.0,0.,12.0,0.,12.0,0.,12.0
1979-07-18 23:57:02.990 ,3,1,0.,12.0,0.,12.0,0.,12.0,0.,12.0
1979-07-18 23:57:14.990 ,3,0,0.,12.0,0.,12.0,0.,12.0,0.,12.0
1979-07-18 23:57:26.990 ,3,0,0.,12.0,0.,12.0,0.,12.0,0.,12.0
1979-07-18 23:57:38.990 ,2,1,0.,12.0,0.,12.0,0.,12.0,0.,12.0
1979-07-18 23:57:50.990 ,2,1,0.,12.0,0.,12.0,0.,12.0,0.,12.0
1979-07-18 23:58:02.990 ,2,0,0.,12.0,0.,12.0,0.,12.0,0.,12.0
1979-07-18 23:58:14.990 ,2,0,0.,12.0,0.,12.0,0.,12.0,0.,12.0
1979-07-18 23:59:14.990 ,0,0,0.,12.0,0.,12.0,0.,12.0,0.,12.0
1979-07-18 23:59:26.990 ,0,0,0.,12.0,0.,12.0,0.,12.0,0.,12.0
1979-07-18 23:59:38.990 ,0,0,0.,12.0,0.,12.0,0.,12.0,0.,12.0
1979-07-18 23:59:50.990 ,0,0,0.,12.0,0.,12.0,0.,12.0,0.,12.0
